Tracking 18843 objects as of 20-November-2017
HD Live streaming from Space Station
objects crossing your sky now

FENGYUN 1C DEB

Track FENGYUN 1C DEB now!
10-day predictions


NORAD ID: 30916
Int'l Code: 1999-025AZE
Perigee: 841.9 km
Apogee: 954.8 km
Inclination: 99.3 °
Period: 102.8 minutes
Semi major axis: 7269 km
RCS: 0.0136 m2 (small)
Launch date: May 10, 1999
Source: People's Republic of China (PRC)
Launch site: Taiyaun Space Center, China (TSC)

Note: This is SATELLITE DEBRIS
aabbcc
Your satellite tracking list
Your tracking list is empty




NASA's NSSDC Master Catalog

Two Line Element Set (TLE):
1 30916U 99025AZE 17324.21157701  .00000387  00000-0  28243-3 0  9995
2 30916  99.2721 324.3904 0077613 115.1187 305.9448 14.00746238545804
Source of the keplerian elements: AFSPC